User: anonymous   Login
Location: Pella
(41.4080°N, 92.9160°W)
Time: 22:30:28
(UTC-06:00)
Language:

Iridium 91 - Orbit

View from above orbital plane
View from above orbital plane
View from above satellite
View from above satellite

Ground track
Ground track

The orbit data is extracted from the following two-line orbital elements,

1 27372U 02005A   17052.36760831  .00000194  00000-0  62365-4 0  9997
2 27372  86.3396 335.7883 0002248  74.9483  60.7720 14.34216413795020
Epoch (UTC): 21 February 2017 08:49:21
Eccentricity: 0.0002248
inclination: 86.3396°
perigee height: 776 km
apogee height: 779 km
right ascension of ascending node: 335.7883°
argument of perigee: 74.9483°
revolutions per day: 14.34216413
mean anomaly at epoch: 60.7720°
orbit number at epoch: 79502

The dashed part of the orbit path shows where the satellite is in the earth's shadow,  

DLR